Home > Weather > Wichita > Past weeks

Flag for U.S.A. Weather for the Past 2 Weeks in Wichita, Kansas, U.S.A.

Now
37 °F

Passing clouds.


Feels Like: 26 °F
Forecast: 31 / 42 °F
Wind: 22 mph from Northwest

Location: Wichita Mid-Continent Airport

Current Time: Feb 8, 2016 at 3:21:51 AM

Latest Report: Feb 8, 2016 at 2:53 AM


Visibility: 10 mi

Pressure: 30.21 "Hg

Humidity: 44%

Dew point: 17 °F

Location of WichitaLocation

Historic Weather in Wichita — Graph

°F

Wichita Temperature Yesterday

Maximum temperature yesterday: 57 °F (at 1:53 PM)
Minimum temperature yesterday: 31 °F (at 5:53 AM)
Average temperature yesterday: 42 °F

High & Low Weather Summary for the Past Weeks

 TemperatureHumidityPressure
High70 °F (Jan 29, 1:53 PM)100% (Feb 2, 3:53 AM)30.41 "Hg (Feb 2, 3:53 AM)
Low18 °F (Feb 4, 7:53 AM)19% (Feb 4, 3:53 PM)29.34 "Hg (Feb 2, 4:53 AM)
Average40 °F61%29.99 "Hg
* Reported Jan 24 1:53 AM — Feb 8 1:53 AM, Wichita, Weather by CustomWeather, © 2016

Note: Actual official high and low records may vary slightly from our data, if they occured in-between our weather recording intervals... More about our weather records

Advertising

Wichita Weather History for the Previous 24 Hours

 ConditionsComfort  
Time TempWeatherWind HumidityBarometerVisibility
1:53 AM
Mon, Feb 8
38 °FClear.21 mph43%30.20 "Hg10 mi
12:53 AM38 °FClear.23 mph45%30.21 "Hg10 mi
11:53 PM
Sun, Feb 7
36 °FClear.14 mph52%30.22 "Hg10 mi
10:53 PM38 °FClear.18 mph48%30.21 "Hg10 mi
9:53 PM39 °FClear.17 mph46%30.20 "Hg10 mi
8:53 PM40 °FClear.18 mph47%30.20 "Hg10 mi
7:53 PM41 °FClear.18 mph47%30.20 "Hg10 mi
6:53 PM44 °FPassing clouds.17 mph41%30.19 "Hg10 mi
5:53 PM47 °FScattered clouds.24 mph33%30.17 "Hg10 mi
4:53 PM50 °FScattered clouds.20 mph32%30.16 "Hg10 mi
3:53 PM52 °FPassing clouds.22 mph27%30.17 "Hg10 mi
2:53 PM55 °FScattered clouds.24 mph25%30.17 "Hg10 mi
1:53 PM57 °FScattered clouds.17 mph25%30.15 "Hg10 mi
12:53 PM55 °FPassing clouds.22 mph28%30.17 "Hg10 mi
11:53 AM54 °FScattered clouds.20 mph25%30.19 "Hg10 mi
10:53 AM48 °FPartly sunny.21 mph43%30.20 "Hg10 mi
9:53 AM46 °FPartly sunny.16 mph48%30.16 "Hg10 mi
8:53 AM40 °FSunny.8 mph63%30.14 "Hg10 mi
7:53 AM39 °FOvercast.8 mph62%30.10 "Hg10 mi
6:53 AM34 °FPassing clouds.6 mph67%30.12 "Hg10 mi
5:53 AM31 °FPassing clouds.5 mph76%30.11 "Hg10 mi
4:53 AM32 °FPassing clouds.5 mph73%30.08 "Hg10 mi
3:53 AM34 °FPassing clouds.6 mph70%30.10 "Hg10 mi
Weather by CustomWeather, © 2016

See weather overviewHow to use our weather pages